Regional Weather Roundup
Issued by NWS Cleveland, OH

Home | Current Version | Previous Version | Graphics & Text | Print | Product List | Glossary On
Versions: 1 2 3 4 5 6 7 8 9 10 11 12 13 14 15 16 17 18 19 20 21 22 23 24 25 26 27 28 29 30 31 32 33 34 35 36 37 38 39 40 41 42 43 44 45 46 47 48 49 50
000
ASUS41 KCLE 242110
RWRCLE
OHIO REGIONAL WEATHER ROUNDUP
NATIONAL WEATHER SERVICE WILMINGTON, OH
500 PM EDT FRI APR 24 2015

NOTE: "FAIR" INDICATES FEW OR NO CLOUDS BELOW 12,000 FEET WITH NO
SIGNIFICANT WEATHER AND/OR OBSTRUCTIONS TO VISIBILITY.

OHZ001>008-015>018-024>027-034-035-043-044-242200-
   NORTHWEST OHIO

CITY           SKY/WX    TMP DP  RH WIND       PRES   REMARKS
DEFIANCE       SUNNY     60  21  22 VRB3      29.99F
FINDLAY        SUNNY     60  23  24 MISG      29.99F
TOLEDO EXPRESS SUNNY     58  22  24 SW9G17    29.99F
TOLEDO EXEC    SUNNY     59  21  23 NW10      30.00F
LIMA           MOSUNNY   58  25  28 VRB3      29.99F
$$

OHZ009>014-019>023-028>033-038-089-242200-
   NORTHEAST OHIO

CITY           SKY/WX    TMP DP  RH WIND       PRES   REMARKS
CLE-HOPKINS    SUNNY     49  25  39 N7        30.06F
CLE-LAKEFRONT  SUNNY     45  23  42 NE7       30.05F
CUY CO. ARPT   SUNNY     48  25  40 NW12      30.06F
LORAIN-ELYRIA  SUNNY     50  25  37 N6        30.03F
ASHTABULA      SUNNY     44  19  36 NW12      30.06S
AKRON-CANTON   MOSUNNY   55  18  23 NW14G23   30.01F
WOOSTER        LGT RAIN  54  26  34 W10       30.01F
MANSFIELD      SUNNY     56  22  26 W9        30.01F
YOUNGSTOWN     MOSUNNY   49  19  30 NW17G35   30.01S
$$

OHZ042-051>053-060>062-070>072-077>081-242200-
  SOUTHWEST OHIO

CITY           SKY/WX    TMP DP  RH WIND       PRES   REMARKS
CINC-COVINGTON CLOUDY    60  27  28 VRB6      29.99F
CINC-LUNKEN    PTSUNNY   60  30  32 SW3       30.00F
HAMILTON       PTSUNNY   62  23  22 VRB5      30.00F
DAYTON         CLOUDY    59  24  26 SW6       30.00F
WRIGHT-PAT AFB PTSUNNY   58  26  29 S7        30.00F
DAYTON GENERAL PTSUNNY   58  26  29 S3        29.99F
WILMINGTON     PTSUNNY   57  25  29 VRB5      30.01F
$$

OHZ036-037-039>041-045>050-054>059-063>069-073>076-082>088-242200-
  CENTRAL AND SOUTHEAST OHIO

CITY           SKY/WX    TMP DP  RH WIND       PRES   REMARKS
COLUMBUS       PTSUNNY   58  23  26 NW3       30.02F
OSU AIRPORT    PTSUNNY   58  23  26 W9        30.01F
BOLTON FIELD   SUNNY     57  27  30 SW7       30.01F
RICKENBACK AFB PTSUNNY   58  28  31 W10       30.01F
NEWARK         MOSUNNY   57  25  29 W6        30.01F
MARION         SUNNY     58  24  27 NW8       30.01F
LANCASTER      PTSUNNY   58  25  28 VRB5      30.03F
ZANESVILLE     MOSUNNY   55  24  30 VRB3      30.02F
NEW PHILLY     SUNNY     58  24  27 NW12      30.02F
$$



USA.gov is the U.S. government's official web portal to all federal, state and local government web resources and services.